EW6534 Weather Reports


Display with metric or nautical units.
time (UTC)temp
F
wind
direction
speed
MPH
gust
MPH
rain 1hr
in
rain 24hr
in
rain mn
in
humidity
%
barometer
mb
20260507043036 44 229 0.0 0.0 0.00 0.31 0.00 91 1013.8
20260507041537 43 229 0.0 0.0 0.00 0.31 0.00 91 1013.8
20260507040034 44 229 0.0 3.0 0.00 0.31 0.00 88 1013.7
20260507034548 44 229 0.0 0.0 0.00 0.32 0.31 89 1013.8
20260507033031 45 229 0.0 1.0 0.00 0.32 0.31 89 1013.8
20260507031527 46 229 0.0 1.0 0.00 0.32 0.31 88 1014.0
20260507030025 46 229 0.0 1.0 0.00 0.32 0.31 87 1014.1
20260507024543 46 229 0.0 0.0 0.00 0.38 0.31 87 1013.9
20260507023022 46 229 0.0 0.0 0.00 0.38 0.31 87 1013.9
20260507021522 46 229 0.0 0.0 0.00 0.38 0.31 83 1013.7
20260507020024 47 307 0.0 0.0 0.00 0.38 0.31 83 1013.6
20260507014532 47 307 0.0 0.0 0.00 0.47 0.31 84 1013.4
20260507013017 48 307 0.0 0.0 0.00 0.47 0.31 81 1013.0
20260507011531 49 307 0.0 1.0 0.00 0.47 0.31 80 1013.2
20260507010018 49 307 0.0 1.0 0.00 0.47 0.31 78 1013.0
20260507004515 50 307 1.0 3.0 0.00 0.47 0.31 75 1013.2
20260507003016 51 307 3.0 8.0 0.00 0.47 0.31 71 1012.8
20260507001510 52 309 6.0 11.0 0.00 0.47 0.31 68 1012.5
20260507000010 53 300 9.0 15.0 0.00 0.47 0.31 65 1012.1
20260506234509 54 300 9.0 13.0 0.00 0.47 0.31 66 1012.0
20260506233008 54 288 8.0 14.0 0.00 0.47 0.31 66 1011.8
20260506231507 54 290 9.0 12.0 0.00 0.47 0.31 64 1012.0
20260506230012 54 285 9.0 13.0 0.00 0.47 0.31 65 1012.0
20260506224505 55 274 10.0 15.0 0.00 0.48 0.31 64 1012.1
20260506223005 55 302 9.0 14.0 0.00 0.48 0.31 66 1012.4
20260506221502 55 273 10.0 17.0 0.00 0.48 0.31 65 1012.3
20260506220002 56 300 11.0 15.0 0.00 0.48 0.31 61 1012.4
20260506214607 56 277 10.0 14.0 0.00 0.64 0.31 62 1012.2
20260506213057 56 304 10.0 16.0 0.00 0.64 0.31 62 1011.8
20260506211556 57 274 8.0 13.0 0.00 0.64 0.31 61 1011.7
20260506210053 57 297 9.0 13.0 0.00 0.64 0.31 60 1011.4
20260506204555 57 300 9.0 15.0 0.00 0.64 0.31 60 1011.5
20260506203052 57 298 7.0 14.0 0.00 0.64 0.31 60 1011.5
20260506201551 57 273 8.0 14.0 0.00 0.64 0.31 61 1011.6
20260506200051 57 294 13.0 16.0 0.00 0.64 0.31 64 1011.4
20260506194550 57 279 12.0 15.0 0.00 0.64 0.31 61 1011.4
20260506193049 58 279 8.0 14.0 0.00 0.64 0.31 62 1011.3
20260506191548 58 279 9.0 16.0 0.00 0.64 0.31 60 1011.2
20260506190045 58 296 6.0 15.0 0.00 0.64 0.31 58 1011.1
20260506184545 57 290 11.0 15.0 0.00 0.64 0.31 60 1011.2
20260506183044 57 355 8.0 16.0 0.00 0.64 0.31 64 1011.3
20260506181539 57 355 6.0 13.0 0.00 0.64 0.31 58 1011.1
20260506180040 56 323 9.0 17.0 0.00 0.64 0.31 61 1011.6
20260506174539 56 315 11.0 17.0 0.00 0.64 0.31 61 1011.5
20260506173035 56 302 12.0 18.0 0.00 0.64 0.31 64 1011.6
20260506171534 56 319 9.0 16.0 0.00 0.64 0.31 66 1011.5
20260506170032 56 318 11.0 16.0 0.00 0.64 0.31 67 1011.7
20260506164531 55 321 11.0 15.0 0.00 0.64 0.31 71 1011.6
20260506163030 54 306 7.0 14.0 0.00 0.64 0.31 74 1011.5
20260506161530 54 316 6.0 13.0 0.00 0.64 0.31 73 1011.6
20260506160028 53 277 7.0 14.0 0.00 0.64 0.31 73 1011.6
20260506154524 52 296 8.0 14.0 0.01 0.64 0.31 76 1011.5
20260506153032 52 302 6.0 15.0 0.01 0.64 0.31 75 1011.2
20260506151520 51 319 7.0 16.0 0.01 0.64 0.31 76 1011.0
20260506150018 51 326 7.0 15.0 0.01 0.64 0.31 78 1010.7
20260506144535 51 296 11.0 14.0 0.00 0.63 0.30 83 1010.5
20260506143015 50 313 11.0 16.0 0.00 0.63 0.30 85 1010.5
20260506141513 50 296 11.0 15.0 0.00 0.63 0.30 85 1010.5
20260506140011 49 320 9.0 15.0 0.00 0.63 0.30 85 1010.1
20260506134509 48 301 9.0 14.0 0.00 0.63 0.30 86 1009.9
20260506133005 48 282 7.0 14.0 0.00 0.63 0.30 88 1009.8
20260506131503 47 288 11.0 14.0 0.00 0.63 0.30 89 1009.6
20260506130139 47 296 9.0 14.0 0.00 0.63 0.30 90 1009.5
20260506124556 47 316 8.0 11.0 0.00 0.64 0.30 91 1009.3
20260506123052 46 319 3.0 10.0 0.00 0.64 0.30 92 1009.2
20260506121554 46 313 8.0 13.0 0.00 0.64 0.30 93 1008.9
20260506120148 46 311 9.0 13.0 0.00 0.64 0.30 93 1008.5
20260506114546 45 307 10.0 15.0 0.00 0.64 0.30 93 1008.3
20260506113049 46 294 13.0 18.0 0.00 0.64 0.30 94 1008.2
20260506111541 46 304 11.0 15.0 0.00 0.64 0.30 94 1007.9
20260506110042 45 312 10.0 13.0 0.00 0.64 0.30 94 1007.2
20260506104535 45 306 7.0 11.0 0.00 0.64 0.30 94 1007.2
20260506103033 45 355 7.0 11.0 0.00 0.64 0.30 93 1006.5
20260506101535 46 336 5.0 10.0 0.00 0.64 0.30 94 1006.8
20260506100030 46 327 9.0 13.0 0.00 0.64 0.30 94 1006.8
20260506094528 45 304 7.0 12.0 0.00 0.64 0.30 94 1006.5
20260506093032 46 306 8.0 14.0 0.00 0.64 0.30 94 1006.1
20260506091524 46 305 12.0 18.0 0.01 0.64 0.30 94 1006.3
20260506090022 46 315 9.0 16.0 0.03 0.64 0.30 95 1006.0
20260506084520 46 360 8.0 14.0 0.04 0.64 0.30 95 1005.9
20260506083027 46 314 9.0 20.0 0.04 0.64 0.30 95 1005.8
20260506081516 46 296 13.0 18.0 0.04 0.63 0.28 94 1005.6
20260506073008 47 311 9.0 15.0 0.03 0.59 0.25 95 1005.2
20260506071506 47 360 7.0 14.0 0.07 0.59 0.25 95 1005.0
20260506061552 55 303 10.0 13.0 0.16 0.52 0.18 93 1004.7
20260506044549 57 115 2.0 6.0 0.00 0.34 0.00 95 1004.8